TimePST,TemperatureF,Dew PointF,Humidity,Sea Level PressureIn,VisibilityMPH,Wind Direction,Wind SpeedMPH,Gust SpeedMPH,PrecipitationIn,Events,Conditions,WindDirDegrees,DateUTC
12:56 AM,28.9,1.0,30,30.25,10.0,West,3.5,-,N/A,,Clear,260,2013-01-21 08:56:00
1:56 AM,28.9,-0.0,29,30.24,10.0,WSW,4.6,-,N/A,,Clear,250,2013-01-21 09:56:00
2:56 AM,23.0,-2.0,34,30.25,10.0,West,4.6,-,N/A,,Clear,280,2013-01-21 10:56:00
3:56 AM,24.1,-0.9,34,30.24,10.0,Calm,Calm,-,N/A,,Clear,0,2013-01-21 11:56:00
4:56 AM,19.9,-4.0,35,30.26,10.0,Calm,Calm,-,N/A,,Clear,0,2013-01-21 12:56:00
5:56 AM,17.1,-5.1,37,30.28,10.0,Calm,Calm,-,N/A,,Clear,0,2013-01-21 13:56:00
6:56 AM,19.9,-2.9,37,30.30,10.0,Calm,Calm,-,N/A,,Clear,0,2013-01-21 14:56:00
7:56 AM,24.1,-0.9,34,30.31,10.0,West,3.5,-,N/A,,Clear,260,2013-01-21 15:56:00
8:56 AM,34.0,3.0,27,30.32,10.0,Calm,Calm,-,N/A,,Clear,0,2013-01-21 16:56:00
9:56 AM,45.0,3.0,18,30.32,10.0,Calm,Calm,-,N/A,,Clear,0,2013-01-21 17:56:00
10:56 AM,52.0,3.9,14,30.31,10.0,Calm,Calm,-,N/A,,Clear,0,2013-01-21 18:56:00
11:56 AM,60.1,3.9,11,30.26,10.0,ENE,5.8,-,N/A,,Clear,70,2013-01-21 19:56:00
12:56 PM,64.0,3.9,9,30.22,10.0,ENE,6.9,-,N/A,,Clear,60,2013-01-21 20:56:00
1:56 PM,66.9,1.9,8,30.20,10.0,ENE,11.5,-,N/A,,Clear,70,2013-01-21 21:56:00
2:56 PM,68.0,1.9,7,30.19,10.0,ENE,11.5,-,N/A,,Clear,70,2013-01-21 22:56:00
3:56 PM,66.9,3.0,8,30.18,10.0,NE,8.1,-,N/A,,Clear,40,2013-01-21 23:56:00
4:56 PM,61.0,5.0,11,30.19,10.0,NE,4.6,-,N/A,,Clear,50,2013-01-22 00:56:00
5:56 PM,50.0,1.9,14,30.22,10.0,Calm,Calm,-,N/A,,Clear,0,2013-01-22 01:56:00
6:56 PM,48.0,1.9,15,30.22,10.0,Calm,Calm,-,N/A,,Clear,0,2013-01-22 02:56:00
7:56 PM,36.0,-2.9,19,30.25,10.0,WNW,6.9,-,N/A,,Clear,300,2013-01-22 03:56:00
8:56 PM,34.0,-0.9,23,30.26,10.0,NW,4.6,-,N/A,,Clear,310,2013-01-22 04:56:00
9:56 PM,32.0,-2.9,22,30.25,10.0,NNW,4.6,-,N/A,,Clear,330,2013-01-22 05:56:00
10:56 PM,32.0,-0.0,26,30.26,-9999.0,West,5.8,-,N/A,,Clear,270,2013-01-22 06:56:00
11:56 PM,28.0,-2.0,27,30.25,-9999.0,West,4.6,-,N/A,,Clear,280,2013-01-22 07:56:00